Location: Krakow
(50.0830°N, 19.9170°E)
Time: 16:04:39
(UTC+01:00)

Altair - Visible Passes

Search period start: 11 December 2023 00:00
Search period end: 21 December 2023 00:00
Orbit: 1501 x 1683 km, 47.2° (Epoch: 10 December)

Date Brightness Start Highest point End Pass type
(mag) Time Alt. Az. Time Alt. Az. Time Alt. Az.
11 Dec 10.0 03:43:54 10° SE 03:45:49 11° ESE 03:47:43 10° ESE visible
11 Dec 8.9 05:39:39 10° SSW 05:48:20 37° SE 05:56:46 10° E visible
12 Dec 9.0 05:14:41 10° SSW 05:23:14 35° SE 05:31:32 10° E visible
13 Dec 9.0 04:49:44 10° SSW 04:58:08 33° SE 05:06:16 10° E visible
13 Dec 8.1 06:52:06 10° WSW 07:01:46 64° SSE 07:11:05 10° E visible
14 Dec 9.0 04:24:50 10° SSW 04:33:02 30° SE 04:41:00 10° E visible
14 Dec 8.1 06:26:55 10° SW 06:36:36 62° SSE 06:45:54 10° E visible
15 Dec 9.0 03:59:57 10° S 04:07:57 28° SE 04:15:43 10° E visible
15 Dec 8.1 06:01:46 10° SW 06:11:25 60° SSE 06:20:43 10° E visible
16 Dec 9.1 03:35:16 10° S 03:42:52 26° SE 03:50:25 10° E visible
16 Dec 8.1 05:36:38 10° SW 05:46:15 58° SSE 05:55:33 10° E visible
17 Dec 9.1 03:12:39 16° S 03:17:47 25° SE 03:25:05 10° E visible
17 Dec 8.1 05:11:29 10° SW 05:21:05 56° SSE 05:30:21 10° E visible
18 Dec 9.1 02:49:46 20° SSE 02:52:43 23° SE 02:59:43 10° E visible
18 Dec 8.1 04:47:51 16° SW 04:55:56 53° SSE 05:05:10 10° E visible
18 Dec 7.8 06:50:21 10° WSW 07:00:11 76° S 07:09:39 10° E visible
19 Dec 9.1 02:26:41 21° SE 02:27:39 21° SE 02:34:18 10° E visible
19 Dec 8.1 04:24:46 24° SSW 04:30:46 51° SSE 04:39:59 10° E visible
19 Dec 7.8 06:25:07 10° WSW 06:35:00 75° S 06:44:29 10° E visible
20 Dec 9.3 02:03:27 19° ESE 02:03:27 19° ESE 02:08:51 10° E visible
20 Dec 8.1 04:01:30 33° SSW 04:05:37 49° SSE 04:14:47 10° E visible
20 Dec 7.7 05:59:53 10° WSW 06:09:47 75° S 06:19:19 10° E visible
